Location: LDNL
(36.4545°S, 141.6685°E)
Time: 12:03:34
(UTC+10:00)

A-11 Canister half - Pass Details

Date: 11 August 2022
Orbit: 1524 x 1684 km, 47.3° (Epoch: 26 September)

Event Time Altitude Azimuth Distance (km) Brightness Sun altitude
Rises 00:07:20 0° 238° (WSW) 4,710 11.8 -67.9°
Enters shadow 00:07:57 - 237° (WSW) 4,515 11.7 -67.9°
Reaches altitude 10° 00:10:22 10° 236° (WSW) 3,737 - -68.1°
Maximum altitude 00:19:53 85° 147° (SSE) 1,589 - -68.6°
Drops below altitude 10° 00:29:40 10° 57° (ENE) 3,835 - -68.9°
Sets 00:32:49 0° 56° (ENE) 4,838 - -69.0°
